Wetbulb
34.95 36.61 36.84 37.04 36.55 37.46 34.72 33.93 30.78 32.45 32.20 35.94 37.37 38.70 39.95 41.41 41.54 41.77 42.55 42.42 42.39 42.92 42.29 41.96 41.77 41.03 40.02 38.93 38.94 38.73 37.84 34.86 34.39 36.28 36.05 34.78 37.33 38.07 37.58 37.29 37.34 35.81 34.48 32.61
31.51 36.57 36.71 34.78 36.66 35.95 36.12 35.52 34.10 33.68 32.70 37.87 40.03 41.01 40.90 41.27 41.55 41.18 41.05 41.94 42.85 41.83 41.98 41.91 41.30 39.60 38.74 38.50 38.41 38.93 37.83 38.56 39.95 39.93 39.72 39.14 38.87 38.79 37.73 37.96 37.13 33.23 31.02 30.06
24.79 32.62 30.68 27.08 31.19 33.75 34.28 34.93 34.12 29.32 33.50 38.06 39.01 39.82 40.46 40.79 41.09 40.64 40.60 40.83 40.62 40.87 41.22 41.09 39.06 38.54 37.37 37.35 38.46 37.81 37.85 39.34 40.03 39.19 39.55 38.88 38.47 38.41 37.27 32.65 30.47 29.45 28.86 28.59
23.45 30.89 21.97 34.17 37.54 37.57 35.15 36.15 36.57 36.00 38.12 39.42 39.90 41.54 41.69 42.33 41.07 39.79 41.39 41.39 40.94 42.02 40.28 38.99 38.48 37.10 36.52 37.10 37.15 37.38 36.08 33.44 34.22 35.21 34.60 32.88 31.84 30.49 28.79 28.10 27.49 26.82 27.09 27.54
29.56 28.06 29.40 34.82 36.62 33.64 32.28 32.75 37.77 38.24 39.01 39.91 41.31 39.50 38.37 41.50 40.32 40.27 39.97 40.55 41.54 40.13 38.63 37.29 35.68 34.85 32.55 31.53 32.47 32.35 32.41 32.60 33.21 33.01 31.11 29.83 28.56 27.10 26.98 25.93 25.81 25.96 27.08 26.93
28.41 26.00 24.49 31.40 35.64 38.61 38.65 30.01 39.05 39.47 39.19 39.55 38.97 34.94 38.19 42.05 40.97 40.50 40.68 41.88 39.07 37.94 36.99 35.58 36.12 33.11 33.11 31.32 31.40 31.23 33.22 32.44 31.42 31.16 29.75 27.88 26.52 25.87 25.98 24.86 25.63 26.11 25.52 25.20
27.71 26.31 27.15 34.52 37.73 39.19 28.79 30.85 38.17 40.33 41.07 39.50 37.72 40.95 41.48 40.89 40.07 40.46 40.36 39.11 38.25 36.51 35.22 35.96 35.27 32.28 29.69 29.31 29.58 31.36 31.68 31.21 30.46 30.51 29.15 27.48 25.89 25.64 24.30 24.04 23.56 18.54 17.24 19.08
26.75 25.57 23.43 38.47 39.76 33.95 37.96 39.13 39.50 39.41 38.90 39.03 40.84 40.46 39.69 39.80 39.88 39.66 36.78 36.19 35.82 34.52 34.74 35.48 31.71 30.59 28.71 27.88 30.07 30.11 30.18 29.47 28.71 28.27 27.62 26.57 24.68 23.94 23.53 22.26 20.03 17.65 13.23 15.92
32.16 30.55 37.08 38.84 41.35 42.11 42.53 40.04 38.22 39.03 43.02 42.87 39.89 38.91 38.35 38.57 39.05 37.22 35.64 34.20 33.94 33.33 34.42 35.82 31.98 30.76 29.73 29.29 29.92 28.95 28.13 27.36 27.29 27.23 26.24 25.14 23.64 22.75 21.97 20.69 18.06 16.55 20.66 18.52
33.76 37.90 39.25 41.75 43.32 44.78 42.64 41.14 43.77 42.09 40.36 37.74 36.23 36.68 37.08 37.93 37.14 35.64 34.74 32.37 32.30 33.47 34.20 34.33 35.48 31.40 30.66 30.25 29.65 28.21 27.46 27.26 26.90 25.31 24.34 23.30 23.62 23.66 22.21 18.26 16.68 21.15 18.92 18.72
37.17 40.52 41.18 41.99 42.68 42.85 44.18 41.83 39.34 39.55 38.93 38.32 37.66 36.87 37.00 36.26 35.70 34.54 32.75 32.47 34.15 34.30 33.79 33.67 33.08 28.76 29.27 28.80 28.85 27.69 27.81 27.32 25.45 24.80 23.50 23.14 23.08 22.87 22.89 21.49 18.77 19.30 16.93 20.62
35.70 41.37 40.72 41.87 42.32 41.94 39.85 38.95 39.44 38.75 38.32 38.81 37.58 36.26 36.36 35.44 34.79 33.04 31.91 33.08 34.60 33.60 32.71 30.79 28.95 27.66 28.20 29.19 28.05 26.89 26.99 26.25 22.49 20.86 20.65 22.84 21.40 21.76 25.66 25.06 25.78 25.19 25.41 22.48
41.13 44.15 44.36 42.38 39.73 40.23 38.94 39.07 40.31 40.22 39.32 35.59 36.23 35.90 35.47 34.68 33.97 33.99 34.58 34.36 32.48 32.71 29.95 28.66 27.75 27.33 26.78 24.90 24.64 23.14 21.30 23.44 21.47 20.94 21.41 20.58 18.19 17.43 11.46 16.86 22.86 23.46 23.68 23.70
43.84 43.97 40.71 39.63 37.40 39.51 38.31 37.77 37.35 37.21 37.29 36.88 36.73 35.74 34.66 34.02 33.39 31.82 31.01 30.33 30.17 28.73 28.36 27.21 26.73 25.95 27.46 27.17 24.29 19.12 17.31 17.30 15.08 15.07 15.14 16.76 11.71 12.42 6.77 7.56 6.50 12.02 18.47 21.18
41.01 41.10 39.82 39.33 38.52 36.88 36.98 37.36 35.63 34.63 34.69 33.80 34.29 33.23 32.40 31.65 30.51 30.06 30.19 29.20 28.81 28.15 26.80 26.29 24.69 25.73 26.58 27.66 26.17 24.54 25.47 19.85 12.47 12.74 12.05 11.69 12.86 8.11 7.10 7.30 7.99 9.70 10.60 15.34
37.24 37.63 37.67 35.34 36.62 35.65 33.86 32.79 32.21 32.13 31.04 31.18 31.29 30.69 30.81 29.19 29.54 29.66 29.09 27.11 25.41 23.76 24.93 18.07 19.27 26.61 28.97 29.52 27.76 24.82 24.22 19.97 15.85 18.85 13.39 13.40 11.19 8.68 10.74 7.83 7.29 8.66 6.70 11.98
32.69 32.45 32.68 30.97 30.25 30.03 30.33 31.32 31.76 31.00 30.33 30.14 28.28 26.68 28.85 28.25 26.76 25.23 25.42 22.17 17.09 16.94 25.28 25.74 24.44 28.44 27.23 28.16 28.00 23.36 18.93 19.81 22.50 18.82 15.09 12.95 8.87 8.37 7.68 5.04 4.89 7.24 6.34 11.30
33.88 33.43 33.15 32.21 31.59 31.03 30.43 31.30 31.04 29.33 28.74 29.52 27.71 29.84 28.42 27.07 24.46 22.00 22.33 19.25 15.40 22.73 24.56 20.95 19.70 27.09 24.16 27.68 26.35 19.40 14.99 18.36 19.97 12.99 12.39 8.08 8.01 8.55 5.56 5.75 8.62 7.96 7.70 11.20
34.29 34.26 34.67 34.77 33.83 31.36 30.33 30.06 28.98 25.81 24.76 24.24 24.47 29.18 27.27 26.02 21.85 25.70 21.49 19.92 19.13 23.94 24.22 23.88 26.74 26.47 26.19 26.45 26.88 22.48 14.77 13.41 12.72 14.19 10.26 7.02 5.69 6.40 4.65 4.34 8.40 5.94 7.35 9.81
32.16 33.12 33.28 32.58 31.76 28.30 28.54 27.55 29.78 30.06 30.74 29.49 26.41 24.42 26.69 25.35 21.32 24.22 22.16 20.79 21.98 25.36 26.43 26.15 25.73 25.07 24.22 24.87 23.68 19.49 16.80 16.36 18.53 12.68 4.52 5.03 2.11 1.26 1.25 5.42 10.52 5.94 4.70 5.22
28.99 29.84 28.58 27.70 27.85 26.90 22.49 26.63 28.01 29.52 31.17 31.34 29.35 29.21 27.55 24.36 19.54 18.98 21.18 25.07 23.90 25.77 27.32 26.23 25.27 25.12 26.70 25.34 24.73 16.70 22.19 22.81 20.17 7.96 5.25 4.51 0.86 1.43 0.71 0.72 5.41 4.61 4.60 6.10
29.52 27.93 26.87 26.59 26.02 27.06 27.84 25.12 26.05 31.63 30.59 31.37 31.14 28.69 20.72 24.10 23.86 24.38 25.01 25.22 26.75 27.38 25.96 25.08 25.15 25.68 25.00 24.71 24.64 24.07 24.45 23.50 20.81 9.66 8.94 5.75 0.54 -0.02 0.15 -0.57 4.81 4.61 4.78 5.37
29.45 28.94 28.77 26.13 26.05 28.17 26.90 24.72 26.56 28.45 28.48 30.91 31.09 26.52 26.35 26.17 25.99 24.59 24.01 22.57 26.71 26.96 25.80 25.78 26.39 26.97 24.96 24.43 24.27 24.78 23.90 22.99 22.43 9.96 11.46 11.04 6.81 -0.27 -1.28 0.66 2.30 4.20 3.41 5.88
29.22 28.76 28.75 28.30 25.53 22.38 24.18 28.99 25.61 25.96 25.74 26.62 24.73 29.02 27.84 26.48 25.38 25.82 26.42 23.97 26.11 23.42 26.07 27.22 27.04 25.07 24.32 21.47 24.13 24.02 24.41 23.85 21.75 9.41 11.46 12.17 6.88 2.85 -1.82 -1.29 1.99 0.46 2.25 5.08
26.83 27.46 27.16 24.86 25.99 27.62 27.83 28.71 26.01 24.61 25.74 25.49 25.67 28.21 28.14 28.92 27.55 23.14 20.71 18.92 23.43 25.53 25.65 25.69 18.98 18.12 16.66 22.41 22.33 23.93 24.20 23.14 16.93 13.02 9.01 8.98 10.16 9.89 -0.75 -1.46 -1.11 -1.00 0.12 3.41
28.77 29.33 29.85 29.13 28.83 29.15 29.20 29.11 29.21 29.91 28.10 26.98 21.28 25.38 28.42 29.20 28.60 27.18 25.93 25.67 23.99 24.83 24.83 25.18 24.23 19.75 18.60 18.90 21.30 19.81 16.70 19.62 20.41 14.39 9.72 8.09 7.39 12.94 7.66 1.77 -1.18 -0.79 1.16 1.99
26.64 23.16 28.28 29.23 29.11 28.47 30.06 30.63 30.41 30.66 29.27 23.88 21.49 24.61 28.70 28.45 27.42 26.39 24.48 25.53 25.15 24.76 24.60 25.02 24.90 24.53 14.92 13.17 12.68 14.25 19.34 17.68 14.96 16.27 13.91 13.74 12.83 13.82 12.02 11.44 6.82 3.34 0.25 -0.82
MSLP
1025.56 1025.23 1024.83 1023.95 1023.69 1023.52 1024.18 1023.99 1024.34 1022.71 1022.17 1021.23 1021.01 1021.18 1021.00 1020.74 1020.60 1020.31 1019.81 1019.35 1019.01 1019.04 1018.75 1018.16 1017.91 1017.65 1017.57 1017.44 1017.26 1016.88 1016.67 1016.59 1016.57 1016.40 1016.21 1016.31 1016.32 1016.18 1015.99 1015.81 1015.28 1015.20 1015.08 1014.92
1026.07 1025.62 1025.03 1024.02 1023.09 1023.18 1023.01 1022.82 1022.80 1022.31 1021.72 1020.75 1020.96 1021.07 1021.06 1020.78 1020.52 1020.19 1019.80 1019.16 1019.11 1018.83 1018.42 1018.11 1017.85 1017.63 1017.55 1017.41 1017.35 1017.15 1017.03 1016.96 1016.92 1016.85 1017.02 1016.76 1016.68 1016.53 1016.22 1016.11 1015.81 1015.53 1015.22 1015.10
1027.45 1026.75 1025.73 1023.82 1022.14 1022.06 1022.13 1021.95 1021.99 1022.02 1021.13 1020.98 1021.05 1020.96 1020.70 1020.31 1020.28 1019.89 1019.34 1019.21 1018.99 1018.75 1018.56 1018.31 1018.14 1018.20 1017.94 1017.61 1017.43 1017.28 1017.16 1016.91 1016.68 1016.89 1016.64 1016.84 1016.80 1016.38 1016.04 1015.86 1015.67 1015.48 1015.38 1015.22
1028.07 1027.22 1026.15 1022.29 1021.33 1021.08 1021.27 1021.18 1020.81 1020.96 1020.74 1020.74 1020.73 1020.28 1020.28 1020.09 1019.97 1019.86 1019.68 1019.46 1019.08 1018.85 1018.48 1018.36 1018.40 1018.13 1017.79 1017.57 1017.49 1017.72 1017.61 1017.50 1017.08 1016.78 1016.52 1016.57 1016.49 1016.33 1016.14 1016.00 1015.98 1015.81 1015.57 1015.39
1028.26 1027.14 1024.83 1022.68 1020.85 1020.44 1020.48 1020.39 1020.11 1020.24 1020.34 1020.55 1020.43 1020.46 1020.03 1019.41 1019.80 1019.79 1019.61 1019.31 1019.28 1019.12 1018.69 1018.41 1018.28 1018.36 1018.37 1018.27 1018.28 1017.96 1018.03 1017.96 1017.62 1017.18 1016.77 1016.68 1016.66 1016.50 1016.30 1016.26 1016.14 1016.04 1015.85 1015.69
1028.17 1027.11 1024.75 1021.81 1020.42 1020.10 1020.37 1020.29 1019.78 1020.19 1020.51 1020.52 1020.45 1020.36 1019.75 1020.11 1020.15 1020.46 1019.65 1019.21 1018.89 1018.71 1018.45 1018.58 1018.65 1018.53 1018.46 1018.39 1018.39 1017.98 1017.72 1017.82 1017.56 1017.50 1017.22 1016.98 1016.88 1016.73 1016.58 1016.54 1016.38 1016.29 1016.05 1015.76
1026.99 1026.23 1023.90 1020.85 1020.34 1020.18 1020.69 1020.46 1020.06 1020.19 1020.38 1020.39 1020.46 1019.92 1020.07 1019.78 1019.76 1019.72 1018.65 1018.58 1019.01 1018.80 1018.75 1018.51 1018.46 1018.43 1018.41 1018.09 1018.34 1018.21 1017.71 1017.80 1017.74 1017.69 1017.43 1017.16 1017.06 1016.90 1016.84 1016.74 1016.64 1016.62 1016.30 1015.90
1026.22 1025.26 1022.53 1020.16 1020.13 1020.44 1020.21 1019.63 1019.92 1020.06 1020.05 1020.08 1020.03 1020.08 1020.42 1020.31 1019.69 1019.09 1019.51 1019.39 1019.17 1018.94 1018.66 1018.39 1018.36 1018.48 1018.31 1018.22 1018.20 1018.12 1018.01 1018.01 1018.02 1017.92 1017.69 1017.45 1017.32 1017.12 1017.01 1016.98 1016.82 1016.59 1016.23 1015.74
1023.88 1022.22 1020.47 1020.02 1019.68 1019.57 1019.82 1019.78 1019.87 1020.12 1020.39 1020.20 1020.47 1020.67 1020.75 1019.79 1019.12 1018.78 1018.76 1019.02 1019.06 1018.98 1018.50 1018.08 1018.06 1018.47 1018.24 1017.97 1017.98 1018.01 1018.13 1018.17 1018.18 1018.02 1017.81 1017.67 1017.54 1017.33 1017.19 1017.06 1016.91 1016.63 1016.20 1015.70
1022.29 1020.85 1019.74 1019.63 1019.16 1019.13 1019.32 1019.49 1020.09 1020.29 1020.81 1021.03 1021.57 1020.86 1019.81 1019.19 1019.47 1018.96 1018.51 1018.73 1019.06 1018.87 1018.31 1017.93 1017.72 1017.59 1017.56 1017.71 1017.76 1017.95 1018.11 1018.17 1018.15 1018.08 1017.97 1017.82 1017.61 1017.38 1017.28 1017.04 1016.82 1016.43 1016.08 1015.56
1020.81 1020.22 1019.59 1019.43 1019.26 1019.68 1019.80 1019.73 1020.38 1021.08 1021.27 1020.99 1020.03 1019.44 1019.05 1018.76 1018.73 1018.67 1018.59 1018.53 1018.83 1018.65 1018.21 1017.83 1017.51 1017.37 1017.39 1017.44 1017.59 1017.88 1018.05 1018.13 1018.13 1018.11 1018.10 1017.92 1017.65 1017.41 1017.20 1016.94 1016.71 1016.16 1015.78 1015.48
1019.52 1019.47 1019.38 1019.31 1019.70 1020.01 1020.46 1020.64 1020.89 1020.65 1020.23 1019.78 1019.50 1019.15 1018.81 1018.77 1018.57 1018.45 1018.42 1018.33 1018.33 1018.25 1018.01 1017.79 1017.48 1017.36 1017.21 1017.20 1017.50 1017.84 1018.00 1018.07 1018.16 1018.19 1018.08 1017.94 1017.72 1017.42 1017.10 1016.79 1016.48 1016.15 1015.69 1015.20
1019.10 1018.93 1019.42 1019.98 1020.33 1020.35 1020.55 1020.88 1020.48 1020.21 1019.86 1020.00 1019.52 1019.48 1019.20 1018.93 1018.47 1018.48 1018.51 1018.39 1018.17 1017.99 1017.86 1017.69 1017.44 1017.28 1017.33 1017.32 1017.50 1017.86 1018.02 1018.15 1018.21 1018.27 1018.20 1018.02 1017.84 1017.80 1017.71 1016.96 1016.68 1016.25 1015.79 1015.25
1018.85 1018.98 1019.33 1019.97 1020.30 1020.43 1020.24 1020.16 1020.16 1020.04 1019.96 1019.85 1019.76 1019.47 1019.34 1019.09 1018.78 1018.79 1018.56 1018.41 1018.26 1018.07 1017.92 1017.78 1017.57 1017.54 1017.46 1017.45 1017.58 1017.94 1018.00 1018.11 1018.19 1018.32 1018.32 1018.16 1018.08 1018.02 1017.91 1017.84 1017.53 1016.75 1016.05 1015.58
1018.89 1019.01 1019.24 1019.95 1020.31 1020.36 1020.46 1020.45 1020.38 1020.36 1020.26 1020.27 1019.90 1019.97 1019.75 1019.47 1019.19 1018.92 1018.62 1018.52 1018.48 1018.23 1018.22 1018.11 1017.98 1017.86 1017.72 1017.57 1017.61 1017.85 1018.00 1018.22 1018.46 1018.41 1018.30 1018.23 1018.21 1018.22 1018.06 1017.92 1017.71 1017.29 1016.65 1015.90
1019.47 1019.81 1020.18 1020.58 1020.90 1021.01 1021.05 1020.99 1020.98 1020.77 1020.57 1020.46 1020.39 1020.29 1020.00 1019.74 1019.30 1019.03 1018.94 1018.87 1018.70 1018.70 1018.76 1018.54 1018.24 1018.03 1017.81 1017.66 1017.77 1017.95 1017.92 1018.00 1018.18 1018.29 1018.31 1018.37 1018.36 1018.34 1018.25 1018.15 1017.95 1017.63 1017.09 1016.47
1020.18 1020.69 1020.91 1021.16 1021.34 1021.09 1021.00 1020.75 1021.09 1020.98 1020.75 1020.48 1020.41 1020.22 1019.74 1019.48 1019.32 1019.14 1019.08 1018.93 1018.91 1018.97 1018.77 1018.56 1018.45 1018.13 1018.02 1017.88 1017.87 1018.02 1018.19 1018.09 1017.97 1018.19 1018.37 1018.46 1018.46 1018.45 1018.39 1018.34 1018.18 1017.87 1017.35 1016.75
1020.89 1021.06 1021.13 1021.29 1021.22 1020.98 1020.95 1020.79 1020.72 1020.73 1020.69 1020.38 1020.31 1020.08 1019.73 1019.70 1019.58 1019.17 1019.24 1018.95 1018.97 1018.91 1018.77 1018.59 1018.40 1018.08 1017.90 1017.91 1017.86 1017.97 1018.19 1018.29 1018.31 1018.37 1018.47 1018.52 1018.57 1018.59 1018.49 1018.37 1018.22 1017.95 1017.57 1017.08
1021.31 1021.23 1021.03 1020.81 1020.93 1020.99 1020.96 1020.68 1020.35 1020.33 1020.32 1020.15 1019.97 1019.66 1019.22 1019.32 1019.41 1019.30 1019.13 1018.96 1019.04 1018.97 1018.78 1018.49 1018.19 1017.91 1017.85 1017.78 1017.72 1017.79 1018.10 1018.53 1018.44 1018.45 1018.58 1018.66 1018.66 1018.64 1018.55 1018.42 1018.28 1018.05 1017.78 1017.45
1021.73 1021.36 1021.13 1021.04 1020.79 1020.76 1020.67 1020.27 1020.15 1020.03 1019.73 1019.64 1019.50 1019.19 1019.00 1018.84 1018.83 1019.02 1018.82 1018.89 1018.52 1018.40 1018.38 1018.24 1018.04 1017.90 1017.79 1017.81 1017.65 1017.82 1017.98 1018.31 1018.35 1018.47 1018.60 1018.73 1018.79 1018.75 1018.68 1018.52 1018.37 1018.18 1017.94 1017.70
1021.87 1021.50 1021.26 1020.99 1020.65 1020.35 1020.23 1019.79 1019.56 1019.13 1018.73 1018.89 1018.79 1018.52 1018.50 1018.46 1018.61 1018.71 1018.83 1018.58 1018.18 1018.00 1018.09 1018.05 1017.95 1017.87 1017.81 1017.73 1017.61 1017.67 1017.67 1017.83 1018.08 1018.28 1018.50 1018.66 1018.79 1018.83 1018.76 1018.60 1018.44 1018.27 1018.07 1017.86
1021.57 1021.46 1020.96 1020.53 1020.28 1019.82 1019.19 1018.96 1018.84 1018.47 1018.27 1017.97 1017.74 1017.82 1018.19 1018.24 1018.27 1018.28 1018.18 1018.21 1017.86 1017.82 1017.87 1017.82 1017.77 1017.74 1017.71 1017.59 1017.44 1017.36 1017.30 1017.39 1017.77 1018.09 1018.28 1018.47 1018.66 1018.81 1018.76 1018.65 1018.49 1018.33 1018.10 1017.80
1021.30 1020.93 1020.46 1020.05 1019.74 1019.29 1018.64 1018.47 1018.01 1017.64 1017.55 1017.24 1017.07 1017.27 1017.49 1017.59 1017.77 1018.01 1017.94 1017.62 1017.61 1017.51 1017.54 1017.60 1017.55 1017.55 1017.56 1017.36 1017.30 1017.17 1017.06 1017.16 1017.41 1017.90 1017.91 1018.03 1018.34 1018.70 1018.69 1018.62 1018.41 1018.04 1017.98 1017.74
1020.80 1020.32 1019.89 1019.34 1019.01 1018.86 1018.37 1017.37 1017.01 1016.83 1016.75 1016.55 1016.55 1016.65 1016.81 1017.10 1017.32 1017.37 1017.35 1017.29 1017.27 1017.26 1017.27 1017.29 1017.26 1017.32 1017.33 1017.25 1017.10 1017.00 1016.89 1016.85 1016.94 1017.25 1017.25 1017.31 1017.58 1017.81 1018.07 1018.02 1018.01 1017.71 1017.65 1017.55
1020.22 1019.80 1019.33 1018.93 1018.60 1018.08 1017.43 1016.76 1016.55 1016.33 1016.25 1016.20 1016.17 1016.12 1016.20 1016.39 1016.76 1017.12 1017.10 1017.11 1017.19 1017.08 1017.10 1017.10 1017.06 1017.07 1017.07 1017.03 1016.89 1016.74 1016.66 1016.60 1016.69 1016.85 1016.95 1017.08 1017.15 1017.29 1017.45 1017.46 1017.45 1017.43 1017.40 1017.39
1019.77 1019.35 1018.94 1018.51 1018.05 1017.47 1016.93 1016.53 1016.23 1015.88 1015.78 1015.88 1015.80 1015.68 1015.78 1015.98 1016.31 1016.50 1016.72 1016.92 1017.00 1016.96 1016.98 1017.00 1016.96 1016.89 1016.82 1016.75 1016.68 1016.57 1016.44 1016.33 1016.34 1016.36 1016.42 1016.53 1016.63 1016.76 1016.90 1016.97 1017.04 1017.07 1017.08 1017.11
1019.18 1018.89 1018.25 1017.70 1017.20 1016.75 1016.36 1015.93 1015.57 1015.23 1015.18 1015.32 1015.51 1015.26 1015.52 1015.73 1016.13 1016.37 1016.45 1016.64 1016.70 1016.77 1016.83 1016.86 1016.84 1016.80 1016.70 1016.59 1016.45 1016.31 1016.14 1015.99 1015.93 1015.95 1015.97 1016.02 1016.09 1016.13 1016.18 1016.34 1016.48 1016.58 1016.71 1016.82
Wind_Speed
5 7 6 13 12 16 7 10 7 8 9 10 6 5 7 7 7 10 13 10 7 10 9 8 7 6 5 5 6 6 7 6 6 5 5 6 5 7 7 7 6 6 6 5
5 6 9 15 14 10 13 11 9 9 11 6 3 5 7 8 10 11 10 7 9 10 10 9 7 6 6 6 6 5 4 4 4 4 7 8 8 7 6 9 9 6 5 5
6 4 8 8 8 5 4 5 6 6 8 1 6 8 8 10 9 10 10 8 11 10 8 8 7 6 7 6 5 3 3 3 3 5 3 5 7 9 9 6 4 5 6 5
4 1 3 12 3 7 11 10 7 6 6 6 9 10 8 10 9 8 8 12 14 10 7 5 5 7 6 6 5 4 5 5 4 3 3 5 5 5 6 4 4 4 5 5
3 4 6 10 10 2 5 7 4 6 4 6 14 7 7 6 1 4 10 11 12 6 5 6 6 5 6 6 6 5 6 7 7 7 6 6 6 6 4 4 4 4 2 4
3 4 7 9 5 1 1 8 3 2 7 16 7 10 9 6 7 7 11 12 6 7 6 6 4 1 3 2 2 2 3 6 5 5 5 5 5 6 3 3 3 3 4 4
4 6 11 10 6 1 3 5 6 5 12 13 8 7 2 4 7 11 10 5 6 6 6 6 4 4 3 4 3 4 4 5 5 5 6 5 5 3 4 4 3 4 5 6
2 4 10 4 1 6 9 3 6 7 7 7 4 6 7 9 12 12 7 7 8 6 5 6 3 4 6 4 2 3 4 5 5 5 4 5 5 5 3 4 4 5 5 6
10 8 5 5 6 8 6 8 4 4 4 5 5 8 12 12 13 5 7 6 5 5 6 5 2 5 5 3 1 3 4 5 5 5 5 4 4 5 3 4 3 5 5 6
5 9 13 9 15 18 6 1 3 5 8 12 9 12 13 15 8 6 5 5 3 5 5 5 4 7 5 2 2 1 4 4 4 4 5 4 4 3 3 4 4 5 5 7
15 14 16 16 7 3 4 9 10 6 5 8 11 15 14 10 7 7 6 3 4 6 5 7 7 5 4 4 2 3 3 4 4 2 3 4 3 3 3 4 2 5 4 5
9 15 13 11 8 6 5 2 1 6 8 11 10 10 9 7 7 5 7 5 5 7 6 8 5 5 5 4 4 4 4 3 2 2 3 3 3 4 7 7 11 13 14 8
14 10 2 6 7 7 7 2 10 10 11 9 8 5 7 6 5 6 6 6 6 7 6 7 6 5 4 4 1 2 3 4 3 3 3 2 2 3 4 6 11 11 13 14
7 3 3 3 3 4 6 7 7 8 8 6 6 7 7 7 7 6 6 5 6 5 5 4 5 4 4 4 1 2 2 3 1 2 2 3 2 3 2 2 3 5 8 12
3 1 4 6 5 5 5 8 11 8 6 9 8 7 7 9 7 7 5 5 5 4 5 5 5 5 5 5 4 3 2 1 2 2 2 2 2 2 2 2 3 3 4 5
5 6 5 2 5 6 6 7 6 8 6 8 8 8 8 7 8 6 4 3 2 3 4 3 3 4 5 3 3 2 2 3 3 2 2 2 2 2 3 2 3 3 3 4
5 3 5 4 5 6 7 6 6 7 7 6 7 8 8 7 6 5 5 2 1 2 3 0 2 5 5 4 3 2 2 2 2 1 1 2 2 3 2 2 2 3 3 3
6 5 5 6 6 7 9 6 6 6 5 7 7 9 8 5 7 6 5 3 2 2 2 2 3 4 3 3 3 1 1 1 2 2 2 3 3 2 2 2 2 2 3 3
2 4 6 5 6 7 8 8 7 4 7 7 7 10 6 6 5 5 4 2 3 1 3 4 5 4 4 4 4 1 1 1 3 2 2 3 2 2 1 2 2 2 2 2
8 7 7 8 8 6 8 7 6 9 11 10 8 7 7 6 4 5 3 3 3 3 3 4 4 4 3 3 3 2 2 2 3 2 2 2 2 3 3 3 2 1 2 2
9 9 9 8 9 9 7 10 9 9 9 9 9 10 7 4 3 3 1 3 3 2 3 3 2 2 1 2 1 1 3 2 2 3 3 3 2 2 3 3 2 1 2 1
7 7 9 9 8 11 11 7 7 9 8 10 9 7 3 4 4 3 4 5 2 2 2 2 2 2 2 3 2 2 2 3 2 2 3 3 3 3 3 3 3 2 2 1
8 8 9 8 9 11 9 7 9 8 9 10 8 6 4 3 2 3 2 4 3 3 2 2 4 4 3 2 2 3 2 2 3 3 3 3 3 3 3 3 3 2 2 2
9 9 10 9 7 5 9 11 6 7 8 6 5 5 4 2 2 3 2 3 4 4 3 3 4 5 4 3 3 3 3 3 2 3 3 3 3 3 3 3 3 3 2 3
7 9 8 8 9 8 9 10 7 7 5 5 5 5 5 4 3 3 2 1 4 3 2 3 4 4 3 3 4 3 3 3 3 2 3 2 3 3 3 3 3 4 3 3
8 8 8 9 9 8 8 7 7 6 3 4 3 3 4 4 4 3 3 3 3 2 1 2 2 3 3 3 4 4 4 3 3 3 3 3 3 3 3 4 3 4 4 3
6 5 5 7 6 5 6 7 7 6 4 4 4 3 4 5 3 3 3 2 2 1 1 2 1 3 3 3 3 3 4 3 4 3 3 3 3 4 4 4 4 4 3 3
Wind_Direction
238 261 264 269 279 291 251 234 222 274 264 272 241 285 289 281 285 284 289 286 278 282 285 280 277 294 314 314 321 321 320 337 357 19 37 57 18 6 350 330 301 316 302 308
300 262 269 278 274 253 267 283 244 257 270 270 265 261 276 278 285 286 285 265 281 289 292 295 298 315 323 329 328 330 345 20 24 40 360 346 330 296 297 293 298 278 308 307
261 348 324 303 237 211 242 228 208 240 245 265 289 280 265 281 290 294 308 307 304 308 309 312 323 319 307 313 321 354 355 311 305 280 265 274 266 261 255 269 304 317 309 322
247 115 194 246 222 216 223 250 245 266 245 250 260 270 260 264 271 293 316 326 322 319 310 311 319 317 328 335 329 360 31 25 16 359 282 270 295 323 325 318 308 321 335 346
224 215 296 300 280 282 202 263 211 225 278 320 302 312 266 241 23 322 348 319 299 293 302 301 327 355 63 45 31 40 14 357 331 326 344 344 336 326 319 333 341 336 335 351
162 237 261 237 250 310 115 279 230 181 262 301 305 295 311 55 19 315 267 280 293 303 312 319 299 236 80 115 77 89 250 300 328 335 341 336 330 330 326 328 335 8 330 322
220 254 281 251 261 132 89 253 217 240 289 289 267 271 37 5 314 283 252 281 320 304 290 282 296 152 165 181 247 327 15 340 339 339 335 350 329 338 344 10 350 333 325 309
142 218 277 186 97 131 233 267 264 283 273 266 302 36 6 321 278 280 333 304 312 308 301 296 260 198 216 237 322 354 10 347 338 338 342 342 344 340 0 347 325 314 309 306
189 217 234 232 225 273 275 268 279 290 338 347 38 14 301 278 279 269 281 291 295 301 301 296 331 280 271 242 315 5 351 337 331 330 333 345 349 334 321 336 324 311 312 315
333 261 269 290 302 299 301 251 57 49 46 45 346 292 284 289 279 278 269 279 281 299 295 286 273 230 228 208 239 334 329 323 321 328 334 340 331 318 315 312 309 312 311 315
257 282 279 275 297 327 349 73 76 46 5 287 258 279 282 280 262 268 281 271 257 267 268 267 272 237 222 233 235 284 301 308 312 299 315 310 316 298 296 285 260 315 287 299
263 272 277 303 59 59 93 88 81 257 267 265 276 289 301 282 273 276 279 248 262 269 278 281 283 249 254 242 220 260 294 308 298 292 295 301 309 311 323 325 339 334 327 327
269 284 32 92 67 64 70 306 249 255 275 302 306 312 298 279 284 285 278 283 285 274 276 290 287 281 334 326 238 236 254 297 298 303 290 290 307 309 307 324 334 340 341 339
284 257 138 114 132 215 235 274 307 305 302 305 303 311 302 298 305 301 290 305 306 306 309 340 358 11 353 347 284 287 285 289 289 286 274 302 310 287 277 302 310 313 331 341
211 122 130 145 194 265 330 315 305 296 307 314 312 304 317 304 295 292 305 314 299 312 354 4 1 342 341 342 342 351 359 295 220 269 292 288 275 296 283 314 309 302 318 329
116 114 140 148 6 338 311 314 305 297 307 304 296 302 310 294 289 298 300 333 15 331 346 17 338 320 339 346 3 350 327 298 246 277 314 318 330 317 317 318 317 319 322 319
98 63 40 14 328 310 284 275 267 271 284 286 277 296 302 300 294 286 306 320 51 205 225 2 335 3 351 347 336 286 282 298 322 334 295 282 277 280 283 284 294 309 288 315
95 135 161 201 261 299 307 292 279 274 267 283 288 290 297 289 276 285 294 319 37 289 5 332 303 331 291 305 306 276 324 288 322 276 293 324 306 305 293 285 297 308 308 326
250 271 267 298 277 267 269 273 275 279 293 278 275 273 241 260 261 271 262 327 95 48 304 309 297 321 326 316 303 188 133 17 320 305 323 312 317 314 291 263 289 304 312 332
325 308 289 275 278 254 273 269 270 279 287 288 279 267 262 265 247 238 229 239 220 195 236 324 317 316 326 355 17 131 173 225 278 285 303 301 296 299 302 284 241 283 300 312
301 293 284 277 278 282 244 263 256 255 278 282 275 270 252 275 257 225 226 232 260 245 309 315 321 317 329 325 354 299 207 251 248 260 265 260 287 289 291 283 250 253 284 285
292 282 280 283 279 284 285 259 246 260 275 272 263 249 229 266 269 268 248 229 186 121 261 270 270 284 266 315 287 279 252 256 260 258 250 243 235 250 258 262 246 251 249 263
286 284 290 284 283 285 295 277 253 251 257 264 253 215 211 220 206 205 258 232 233 198 227 252 267 258 271 286 290 293 263 259 266 255 246 231 221 220 230 241 237 226 228 222
285 287 282 282 280 280 282 296 270 251 243 246 212 199 191 187 250 231 250 207 242 240 232 257 281 239 232 261 260 265 276 265 265 272 264 233 221 224 237 239 233 230 224 211
271 281 285 290 294 291 284 290 282 269 261 242 215 204 186 180 179 195 203 295 297 262 252 295 303 258 237 243 255 256 260 249 241 238 246 244 244 223 235 228 221 215 216 215
294 295 300 297 286 291 292 297 286 274 252 244 232 199 191 177 191 176 175 236 237 241 214 286 307 306 274 257 258 259 266 252 236 234 220 227 223 233 227 226 227 217 210 211
264 253 272 299 292 276 279 280 284 280 243 204 219 198 178 165 172 179 187 210 219 190 240 271 289 303 302 306 294 274 264 257 240 236 232 231 220 229 219 217 220 215 207 201